Oaxaca, Mexico

6:02 AM CST on December 13, 2017 (GMT -0600)
Xoxocotlan International

Weather History for MMOX - October, 2012

Change the Weather History Date:

Tuesday, October 30, 2012

  Actual Average Record
Temperature  
Mean Temperature 64 °F -  
Max Temperature 72 °F 78 °F 87 °F (1997)
Min Temperature 57 °F 50 °F 44 °F (2006)
Growing Degree Days 14 (Base 50)    
Moisture  
Dew Point 56 °F    
Average Humidity 75    
Maximum Humidity 88    
Minimum Humidity 51    
Precipitation  
Precipitation 0.15 in - - ()
Sea Level Pressure  
Sea Level Pressure 30.11 in    
Wind  
Wind Speed 2 mph ()    
Max Wind Speed 10 mph    
Max Gust Speed -    
Visibility 8.5 miles    
Events Rain    
Averages and records for this station are not official NWS values.
T = Trace of Precipitation, MM = Missing Value Source: Averaged Metar Reports

Daily Weather History Graph

Daily Weather History Graph

Search for Another Location

Airport or City:

Trip Planner

Search our weather history database for the weather conditions in past years. The results will help you decide how hot, cold, wet, or windy it might be!

Date:

Astronomy

Oct. 30, 2012 Rise Set
Actual Time 6:24 AM CST 5:56 PM CST
Civil Twilight 6:02 AM CST 6:18 PM CST
Nautical Twilight 5:36 AM CST 6:44 PM CST
Astronomical Twilight 5:10 AM CST 7:09 PM CST
Moon 6:39 PM CST (10/30) 7:01 AM CST (10/30)
Length of Visible Light 12h 16m
Length of Day
11h 31m
Full, 99% of the Moon is Illuminated
Oct 30
Full
Nov 6
Last Quarter
Nov 13
New
Nov 20
First Quarter
Nov 28
Full

Hourly Weather History & Observations

Time (CST) Temp. Dew Point Humidity Pressure Visibility Wind Dir Wind Speed Gust Speed Precip Events Conditions
2:40 AM 63 °F 56 °F 71% 29.99 in 6 mi NNE 2.2 mph - -   Partly Cloudy
5:40 AM 60 °F 55 °F 79% 30.02 in 6 mi NNE 2.2 mph - -   Partly Cloudy
5:57 AM 57.2 °F 53.6 °F 88% 29.98 in 7.0 mi North 3.5 mph - N/A   Mostly Cloudy
6:40 AM 59.0 °F 55.4 °F 88% 30.25 in 8.0 mi NW 2.3 mph - N/A   Overcast
7:53 AM 60.8 °F 55.4 °F 82% 30.27 in 8.0 mi Calm Calm - N/A   Overcast
8:30 AM 64 °F 57 °F 71% 30.06 in 12 mi East 2.2 mph - -   Partly Cloudy
8:51 AM 62.6 °F 57.2 °F 82% 30.00 in 10.0 mi Calm Calm - N/A   Overcast
9:47 AM 66.2 °F 55.4 °F 68% 30.30 in 10.0 mi North 2.3 mph - N/A   Overcast
10:48 AM 68.0 °F 55.4 °F 64% 30.28 in 10.0 mi WNW 2.3 mph - N/A   Overcast
11:30 AM 70 °F 56 °F 51% 30.05 in 9 mi SE 2.2 mph - -   Partly Cloudy
11:43 AM 68.0 °F 55.4 °F 64% 29.94 in 10.0 mi South 4.6 mph - N/A   Overcast
12:47 PM 68.0 °F 53.6 °F 60% 30.24 in 12.0 mi SSE 3.5 mph - N/A   Overcast
1:41 PM 68.0 °F 53.6 °F 60% 30.23 in 10.0 mi WSW 2.3 mph - N/A Rain Light Rain
2:44 PM 64.4 °F 57.2 °F 77% 29.92 in 10.0 mi North 10.4 mph - N/A Rain Light Rain
2:50 PM 66 °F 59 °F 73% 29.98 in 6 mi ENE 4.5 mph - - Rain Light Drizzle
3:47 PM 64.4 °F 57.2 °F 77% 30.20 in 10.0 mi NNW 5.8 mph - N/A   Overcast
4:45 PM 64.4 °F 57.2 °F 77% 30.19 in 8.0 mi Calm Calm - N/A   Overcast
5:46 PM 64.4 °F 57.2 °F 77% 29.95 in 8.0 mi Calm Calm - N/A   Overcast
5:50 PM 65 °F 57 °F 69% 29.97 in 9 mi NE 2.2 mph - -   Partly Cloudy
6:48 PM 62.6 °F 57.2 °F 82% 30.23 in 8.0 mi Calm Calm - N/A   Overcast
7:45 PM 60.8 °F 57.2 °F 88% 30.25 in 8.0 mi Calm Calm - N/A   Overcast
8:45 PM 60.8 °F 55.4 °F 82% 30.00 in 8.0 mi Calm Calm - N/A   Overcast
8:50 PM 62 °F 56 °F 76% 30.01 in 6 mi North 2.2 mph - -   Partly Cloudy
9:45 PM 60.8 °F 55.4 °F 82% 30.28 in 8.0 mi Calm Calm - N/A   Overcast
10:45 PM 59.0 °F 55.4 °F 88% 30.27 in 8.0 mi Calm Calm - N/A   Overcast
11:55 PM 61 °F 55 °F 75% 30.02 in 6 mi NE 2.2 mph - -   Partly Cloudy